Regional Weather Roundup
Issued by NWS State College, PA

Home | Current Version | Previous Version | Text Only | Print | Product List | Glossary On
Versions: 1 2 3 4 5 6 7 8 9 10 11 12 13 14 15 16 17 18 19 20 21 22 23 24 25 26 27 28 29 30 31 32 33 34 35 36 37 38 39 40 41 42 43 44 45 46 47 48 49 50
926
ASUS41 KCTP 241703
RWRCTP

REGIONAL WEATHER ROUNDUP
NATIONAL WEATHER SERVICE STATE COLLEGE PA
100 PM EDT SAT JUN 24 2017

Note: "fair" indicates few or no clouds below 12,000 feet with no
significant weather and/or obstructions to visibility.

* = STATION THAT DOES NOT REPORT PRECIPITATION /E.G. RAIN...SNOW...ETC/
    THUNDER OR FOG.

PAZ002>004-007>009-013>016-020>023-029>032-241800-
WESTERN PENNSYLVANIA

CITY           SKY/WX    TMP DP  RH WIND       PRES   REMARKS
ERIE           SUNNY     72  61  68 W15       29.86R
MEADVILLE      PTSUNNY   71  58  63 W10       29.88
FRANKLIN*      PTSUNNY   73  55  53 W10G23    29.90R
NEW CASTLE     CLOUDY    74  59  59 W10G17    29.89S
BEAVER COUNTY  MOSUNNY   73  55  53 SW10      29.90
BUTLER*        MOSUNNY   75  55  50 SW15G22   29.90R
PITTSBURGH INT MOSUNNY   77  57  50 SW13G18   29.90S
PITTSBURGH     MOSUNNY   76  52  43 SW14      29.91S
INDIANA*       MOSUNNY   75  57  53 W15G21    29.93S
LATROBE        MOSUNNY   75  59  57 W12G20    29.93R
WASHINGTON CO* MOSUNNY   77  59  53 SW9       29.94F
$$

PAZ004>006-010>012-017>019-024>028-033>037-041-042-045-046-049>053-241800-
CENTRAL PENNSYLVANIA

CITY           SKY/WX    TMP DP  RH WIND       PRES   REMARKS
BRADFORD       PTSUNNY   72  54  53 W12G20    29.87R
DUBOIS         PTSUNNY   74  52  46 W15G28    29.89R
CLEARFIELD     MOSUNNY   77  54  44 W14G22    29.88S
JOHNSTOWN      PTSUNNY   72  56  57 W13       29.94S
ALTOONA        PTSUNNY   76  57  51 W14G20    29.92R
STATE COLLEGE  MOSUNNY   77  57  50 W7        29.87S
WILLIAMSPORT   PTSUNNY   80  58  46 W9        29.79S
SELINSGROVE    MOSUNNY   81  61  50 W6        29.83R
FT INDIANTOWN  MOSUNNY   80  58  47 W12G22    29.83R
CAPITAL CITY   MOSUNNY   83  56  39 W13G21    29.84R
HARRISBURG     MOSUNNY   83  60  45 NW16G24   29.83R
YORK           MOSUNNY   81  61  50 W9G18     29.85R
$$

PAZ038>040-043-044-047-048-054-055-060>062-067>071-241800-
EASTERN PENNSYLVANIA

CITY           SKY/WX    TMP DP  RH WIND       PRES   REMARKS
SCRANTON       MOSUNNY   80  54  40 NW10G21   29.81R
MOUNT POCONO   MOSUNNY   73  53  49 NW15G25   29.84R
ALLENTOWN      MOSUNNY   82  59  45 W14       29.79R
QUAKERTOWN*    MOSUNNY   81  57  44 NW9G20    29.81R
READING        MOSUNNY   83  60  45 NW14G23   29.81R
LANCASTER      PTSUNNY   81  61  50 W13G21    29.84R
COATESVILLE    MOSUNNY   81  61  50 W16       29.86R
POTTSTOWN      SUNNY     81  58  45 NW10G21   29.82R
BLUE BELL      MOSUNNY   81  61  50 NW7       29.82R
DOYLESTOWN     SUNNY     83  58  42 N10G17    29.79R
WILLOW GROVE   NOT AVBL
NORTH PHILA    MOSUNNY   86  66  51 W14       29.80R
PHILADELPHIA   MOSUNNY   85  58  39 NW17G30   29.80R
$$




USA.gov is the U.S. government's official web portal to all federal, state and local government web resources and services.